Regional Weather Roundup
Issued by NWS

Home | Current Version | Previous Version | Text Only | Print | Product List | Glossary On
Versions: 1 2 3 4 5 6 7 8 9 10 11 12 13 14 15 16 17 18 19 20 21 22 23 24 25 26 27 28 29 30 31 32 33 34 35 36 37 38 39 40 41 42 43 44 45 46 47 48 49 50
000
ASUS43 KOAX 200710
RWRNE

WEATHER ROUNDUP FOR NEBRASKA
NATIONAL WEATHER SERVICE OMAHA NE
200 AM CDT FRI OCT 20 2017

NOTES: SATELLITE DATA IS BEING USED TO AUGMENT CLOUD COVER ABOVE
       12000 FEET.
       "FAIR" INDICATES FEW OR NO CLOUDS BELOW 12,000 FEET WITH NO
       SIGNIFICANT WEATHER AND/OR OBSTRUCTIONS TO VISIBILITY.


NEZ001>004-019>022-054>056-200800-
NEBRASKA PANHANDLE

CITY           SKY/WX    TMP DP  RH WIND       PRES   REMARKS
SCOTTSBLUFF    CLEAR     55  32  41 E5        29.79F
ALLIANCE       CLEAR     44  39  82 S10       29.79F
CHADRON        CLEAR     59  35  40 SW10      29.71S
GORDON         FAIR      61  44  53 S13       29.76F
KIMBALL        CLEAR     46  36  66 CALM      29.83F
SIDNEY         CLEAR     46  39  76 S6        29.83F
$$

NEZ057>060-069>072-079>082-200800-
SOUTHWEST NEBRASKA

CITY           SKY/WX    TMP DP  RH WIND       PRES   REMARKS
NORTH PLATTE   PTCLDY    61  44  53 S8        29.85F
IMPERIAL       CLEAR     58  43  57 S10       29.84F
LEXINGTON      PTCLDY    59  46  61 S10       29.89F
MCCOOK         PTCLDY    60  45  57 S16G23    29.87F
OGALLALA       CLEAR     56  44  62 CALM      29.83F
$$

NEZ005>010-023>029-035>040-094-200800-
NORTH CENTRAL NEBRASKA

CITY           SKY/WX    TMP DP  RH WIND       PRES   REMARKS
VALENTINE      CLEAR     61  44  53 SW8       29.78F
AINSWORTH      CLEAR     59  45  58 S13       29.81S
BROKEN BOW     PTCLDY    59  45  59 S9        29.87F
O`NEILL        PTCLDY    60  47  60 S13       29.84F
ORD            CLEAR     59  45  59 S9        29.87F
THEDFORD       CLEAR     61  43  51 S9        29.83F
$$

NEZ041-046>049-061>064-073>077-083>087-200800-
SOUTH CENTRAL NEBRASKA

CITY           SKY/WX    TMP DP  RH WIND       PRES   REMARKS
GRAND ISLAND   FAIR      59  48  67 S14       29.93S
AURORA         FAIR      58  46  63 S12       29.94S
HASTINGS       FAIR      59  46  62 S9        29.94F
HEBRON         FAIR      58  49  71 S8        29.97F
HOLDREGE       FAIR      57  47  71 S8        29.91F
KEARNEY        FAIR      58  46  64 S15       29.92F
YORK           FAIR      59  48  67 S10       29.95S
$$

NEZ011>018-030>034-042>045-200800-
NORTHEAST NEBRASKA

CITY           SKY/WX    TMP DP  RH WIND       PRES   REMARKS
NORFOLK        FAIR      61  47  59 S18G26    29.89F
ALBION         FAIR      59  48  66 S7        29.91S
BLAIR          FAIR      62  50  66 S14       29.97S
COLUMBUS       FAIR      62  47  57 S13G21    29.94S
FREMONT        FAIR      62  47  58 S12G17    29.96S
TEKAMAH        FAIR      60  49  66 S9        29.95S
WAYNE          FAIR      58  47  66 S9        29.90F
$$

NEZ050>053-065>068-078-088>093-200800-
SOUTHEAST NEBRASKA

CITY           SKY/WX    TMP DP  RH WIND       PRES   REMARKS
LINCOLN        FAIR      61  49  64 S14       29.98S
OMAHA EPPLEY   FAIR      59  50  72 SE10      29.99R
BEATRICE       FAIR      60  50  69 S10G17    29.99S
FALLS CITY     FAIR      59  52  77 S7        30.03S
NEBRASKA CITY  FAIR      60  52  75 S13G18    30.01S
PLATTSMOUTH    FAIR      58  52  78 S10       30.00S
$$

NEZ044-045-051>053-067-200800-
OMAHA AREA

CITY           SKY/WX    TMP DP  RH WIND       PRES   REMARKS
OMAHA EPPLEY   FAIR      59  50  72 SE10      29.99R
BLAIR          FAIR      62  50  66 S14       29.97S
FREMONT        FAIR      62  47  58 S12G17    29.96S
MILLARD        FAIR      62  51  67 SE6       29.98S
OFFUTT AFB     FAIR      54  49  83 SE7       29.99R
PLATTSMOUTH    FAIR      58  52  78 S10       30.00S
WAHOO          FAIR      61  48  62 S10       29.96S
$$




USA.gov is the U.S. government's official web portal to all federal, state and local government web resources and services.